Flag for Morocco Weather past 2 weeks in Rabat, Morocco

Now
64 °F

Passing clouds.


Feels Like: 64 °F
Forecast: 59 / 71 °F
Wind: 7 mph from West

Location: Rabat-Sale


UV Index: 7 (High)

Visibility: 5 mi


Pressure: 29.98 "Hg

Humidity: 78%

Dew point: 57 °F

Location of RabatLocation

Historic Weather in Rabat

°F

Rabat temperature yesterday

Maximum temperature yesterday: 68 °F (at 11:00 AM)
Minimum temperature yesterday: 55 °F (at 11:00 PM)
Average temperature yesterday: 63 °F

Past Weeks' High & Low Weather Summary

 TemperatureHumidityPressure
High95 °F (Apr 8, 2:00 PM)100% (Apr 7, 7:30 AM)30.24 "Hg (Apr 7, 7:30 AM)
Low46 °F (Apr 4, 2:30 AM)12% (Apr 8, 5:00 PM)29.68 "Hg (Apr 2, 6:00 PM)
Average64 °F76%29.99 "Hg
* Reported Apr 2 6:00 PM — Apr 17 6:00 PM, Rabat, Weather by CustomWeather, © 2014

Note: Actual official high and low records may vary slightly from our data, if they occured in-between our weather recording intervals... More about our weather records

Advertising

Historic Weather Conditions — Data for Previous 24 hours

 ConditionsComfort  
Time TempWeatherWind HumidityBarometerVisibility
6:00 PM
Apr 17
66 °FPartly sunny.7 mph73%29.98 "HgN/A
5:30 PM66 °FPartly sunny.8 mph73%29.98 "HgN/A
5:00 PM68 °FPartly sunny.7 mph69%29.98 "HgN/A
4:30 PM68 °FPartly sunny.8 mph69%29.98 "Hg5 mi
4:00 PM68 °FPartly sunny.8 mph69%29.98 "Hg5 mi
3:30 PM68 °FPartly sunny.7 mph69%29.98 "Hg5 mi
3:00 PM68 °FPartly sunny.8 mph69%29.98 "Hg5 mi
2:30 PM68 °FPartly sunny.7 mph69%30.01 "Hg5 mi
2:00 PM66 °FPartly sunny.7 mph73%30.01 "Hg5 mi
1:30 PM66 °FPartly sunny.6 mph73%30.01 "Hg4 mi
1:00 PM66 °FPartly sunny.5 mph73%30.01 "Hg4 mi
12:30 PM66 °FPartly sunny.6 mph73%30.01 "Hg4 mi
12:00 PM64 °FBroken clouds.6 mph78%30.01 "Hg4 mi
11:00 AM64 °FBroken clouds.5 mph78%30.04 "Hg4 mi
10:30 AM63 °FBroken clouds.5 mph77%30.04 "Hg4 mi
10:00 AM63 °FBroken clouds.2 mph77%30.01 "Hg4 mi
9:30 AM61 °FBroken clouds.No wind88%30.01 "Hg4 mi
9:00 AM61 °FBroken clouds.No wind88%30.01 "Hg4 mi
8:30 AM61 °FBroken clouds.No wind88%29.98 "Hg4 mi
8:00 AM61 °FBroken clouds.No wind88%29.98 "Hg4 mi
7:30 AM61 °FBroken clouds.1 mph88%29.98 "Hg4 mi
7:00 AM59 °FBroken clouds.2 mph88%29.98 "HgN/A
6:00 AM59 °FBroken clouds.2 mph88%29.98 "HgN/A
5:30 AM59 °FPartly cloudy.1 mph94%29.98 "HgN/A
5:00 AM59 °FPartly cloudy.1 mph94%29.98 "HgN/A
4:00 AM59 °FPassing clouds.2 mph94%29.98 "Hg6 mi
3:30 AM59 °FPassing clouds.1 mph94%30.01 "Hg5 mi
3:00 AM59 °FPassing clouds.2 mph88%30.01 "Hg2 mi
2:30 AM57 °FPassing clouds.No wind94%30.01 "Hg2 mi
2:00 AM57 °FPassing clouds.1 mph94%30.04 "Hg3 mi
1:30 AM55 °FPassing clouds.3 mph94%30.04 "Hg2 mi
1:00 AM57 °FPassing clouds.3 mph88%30.04 "Hg3 mi
12:30 AM55 °FPassing clouds.2 mph88%30.04 "Hg3 mi
12:00 AM55 °FPassing clouds.No wind88%30.04 "Hg3 mi
11:30 PM
Apr 16
55 °FPartly cloudy.No wind94%30.04 "Hg4 mi
11:00 PM55 °FPartly cloudy.2 mph94%30.04 "Hg4 mi
10:30 PM57 °FPartly cloudy.2 mph88%30.04 "Hg4 mi
10:00 PM59 °FPartly cloudy.2 mph88%30.04 "Hg4 mi
9:30 PM61 °FPartly cloudy.6 mph83%30.04 "Hg4 mi
9:00 PM61 °FPartly cloudy.7 mph83%30.04 "Hg4 mi
8:30 PM63 °FPartly cloudy.8 mph77%30.01 "Hg4 mi
8:00 PM63 °FPartly cloudy.9 mph83%30.01 "Hg5 mi
7:30 PM63 °FPartly cloudy.12 mph77%30.01 "Hg5 mi
7:00 PM64 °FPartly cloudy.14 mph73%30.01 "Hg5 mi
Weather by CustomWeather, © 2014

See weather overview